When you browse on this site, cookies collect data to enhance your experience and personalize the content and advertising you see.
Visit our Privacy Policy to learn more. By continuing to use the site, you agree to this use of cookies and data.

Hourly Weather San Antonio

Today, 21 September, Monday

Time Temperature Precipitation Wind Pressure Humidity
00:00 +11°C° 0 mm 1 mps 762 mmHg 94%
01:00 +11°C° 0 mm 1 mps 762 mmHg 94%
02:00 +11°C° 0 mm 1 mps 762 mmHg 94%
03:00 +11°C° 0 mm 1 mps 762 mmHg 94%
04:00 +11°C° 0 mm 1 mps 761 mmHg 94%
05:00 +12°C° 0 mm 1 mps 761 mmHg 93%
06:00 +13°C° 0 mm 1 mps 762 mmHg 92%
07:00 +14°C° 0 mm 1 mps 762 mmHg 91%
08:00 +16°C° 0 mm 2 mps 762 mmHg 85%
09:00 +18°C° 0 mm 2 mps 762 mmHg 80%
10:00 +19°C° 0 mm 3 mps 761 mmHg 75%
11:00 +20°C° 0 mm 3 mps 761 mmHg 72%
12:00 +21°C° 0 mm 3 mps 761 mmHg 69%
13:00 +22°C° 0 mm 3 mps 761 mmHg 66%
14:00 +20°C° 0 mm 3 mps 761 mmHg 69%
15:00 +19°C° 0 mm 3 mps 761 mmHg 72%
16:00 +18°C° 0 mm 3 mps 761 mmHg 74%
17:00 +16°C° 0 mm 3 mps 761 mmHg 79%
18:00 +13°C° 0 mm 3 mps 762 mmHg 83%
19:00 +13°C° 0 mm 2 mps 762 mmHg 88%
20:00 +13°C° 0 mm 2 mps 762 mmHg 88%
21:00 +13°C° 0 mm 2 mps 762 mmHg 87%
22:00 +13°C° 0 mm 1 mps 762 mmHg 87%
23:00 +13°C° 0 mm 1 mps 762 mmHg 87%

Tomorrow, 22 September, Tuesday

Time Temperature Precipitation Wind Pressure Humidity
00:00 +13°C° 0 mm 1 mps 762 mmHg 87%
01:00 +12°C° 0 mm 2 mps 762 mmHg 87%
02:00 +12°C° 0 mm 2 mps 762 mmHg 88%
03:00 +12°C° 0 mm 2 mps 762 mmHg 89%
04:00 +12°C° 0 mm 2 mps 761 mmHg 89%
05:00 +13°C° 0 mm 2 mps 762 mmHg 88%
06:00 +14°C° 0 mm 2 mps 762 mmHg 86%
07:00 +15°C° 0 mm 2 mps 762 mmHg 85%
08:00 +17°C° 0 mm 2 mps 762 mmHg 80%
09:00 +19°C° 0 mm 3 mps 762 mmHg 74%
10:00 +21°C° 0 mm 3 mps 762 mmHg 69%
11:00 +21°C° 0 mm 3 mps 762 mmHg 67%
12:00 +21°C° 0 mm 4 mps 761 mmHg 65%
13:00 +22°C° 0 mm 4 mps 761 mmHg 62%
14:00 +21°C° 0 mm 4 mps 761 mmHg 65%
15:00 +20°C° 0 mm 4 mps 761 mmHg 68%
16:00 +19°C° 0 mm 4 mps 761 mmHg 71%
17:00 +17°C° 0 mm 4 mps 762 mmHg 75%
18:00 +15°C° 0 mm 4 mps 762 mmHg 80%
19:00 +13°C° 0 mm 3 mps 762 mmHg 84%
20:00 +12°C° 0 mm 3 mps 762 mmHg 85%
21:00 +12°C° 0 mm 3 mps 762 mmHg 85%
22:00 +12°C° 0 mm 3 mps 763 mmHg 85%
23:00 +13°C° 0 mm 2 mps 762 mmHg 86%

Day after tomorrow, 23 September, Wednesday

Time Temperature Precipitation Wind Pressure Humidity
00:00 +12°C° 0 mm 2 mps 762 mmHg 87%
01:00 +12°C° 0 mm 2 mps 762 mmHg 88%
02:00 +12°C° 0 mm 2 mps 762 mmHg 88%
03:00 +12°C° 0 mm 2 mps 761 mmHg 88%
04:00 +12°C° 0 mm 2 mps 761 mmHg 89%
05:00 +13°C° 0 mm 2 mps 761 mmHg 87%
06:00 +14°C° 0 mm 2 mps 761 mmHg 85%
07:00 +14°C° 0 mm 2 mps 761 mmHg 84%
08:00 +17°C° 0 mm 2 mps 761 mmHg 76%
09:00 +19°C° 0 mm 3 mps 761 mmHg 68%
10:00 +21°C° 0 mm 3 mps 761 mmHg 61%
11:00 +21°C° 0 mm 3 mps 761 mmHg 60%
12:00 +21°C° 0 mm 4 mps 761 mmHg 59%
13:00 +21°C° 0 mm 4 mps 761 mmHg 58%
14:00 +20°C° 0 mm 4 mps 761 mmHg 62%
15:00 +19°C° 0 mm 4 mps 761 mmHg 67%
16:00 +18°C° 0 mm 4 mps 761 mmHg 71%
17:00 +15°C° 0 mm 4 mps 761 mmHg 76%
18:00 +13°C° 0 mm 3 mps 761 mmHg 81%
19:00 +11°C° 0 mm 3 mps 762 mmHg 87%
20:00 +11°C° 0 mm 3 mps 762 mmHg 87%
21:00 +11°C° 0 mm 3 mps 762 mmHg 87%
22:00 +11°C° 0 mm 3 mps 762 mmHg 87%
23:00 +10°C° 0 mm 3 mps 762 mmHg 88%

24 September, Thursday

Time Temperature Precipitation Wind Pressure Humidity
00:00 +10°C° 0 mm 2 mps 762 mmHg 89%
01:00 +10°C° 0 mm 2 mps 762 mmHg 90%
02:00 +10°C° 0 mm 2 mps 761 mmHg 90%
03:00 +9°C° 0 mm 2 mps 761 mmHg 90%
04:00 +9°C° 0 mm 2 mps 761 mmHg 90%
05:00 +10°C° 0 mm 3 mps 762 mmHg 90%
06:00 +11°C° 0 mm 3 mps 762 mmHg 89%
07:00 +11°C° 0 mm 3 mps 762 mmHg 88%
08:00 +13°C° 0 mm 3 mps 762 mmHg 83%
09:00 +14°C° 0 mm 4 mps 763 mmHg 78%
10:00 +15°C° 0 mm 4 mps 763 mmHg 74%
11:00 +15°C° 0 mm 5 mps 763 mmHg 74%
12:00 +15°C° 0 mm 5 mps 763 mmHg 74%
13:00 +15°C° 0 mm 6 mps 763 mmHg 75%
14:00 +14°C° 0 mm 5 mps 763 mmHg 76%
15:00 +13°C° 0 mm 5 mps 763 mmHg 78%
16:00 +13°C° 0 mm 5 mps 764 mmHg 79%
17:00 +11°C° 0 mm 4 mps 764 mmHg 83%
18:00 +10°C° 0 mm 4 mps 764 mmHg 88%
19:00 +9°C° 0 mm 3 mps 765 mmHg 92%
20:00 +9°C° 0 mm 3 mps 765 mmHg 91%
21:00 +8°C° 0 mm 3 mps 765 mmHg 91%
22:00 +8°C° 0 mm 3 mps 765 mmHg 90%
23:00 +8°C° 0 mm 3 mps 765 mmHg 90%

25 September, Friday

Time Temperature Precipitation Wind Pressure Humidity
00:00 +8°C° 0 mm 3 mps 765 mmHg 89%
01:00 +8°C° 0 mm 3 mps 765 mmHg 89%
02:00 +8°C° 0 mm 3 mps 765 mmHg 87%
03:00 +9°C° 0 mm 3 mps 765 mmHg 85%
04:00 +9°C° 0 mm 3 mps 765 mmHg 83%
05:00 +9°C° 0 mm 3 mps 765 mmHg 81%
06:00 +10°C° 0 mm 3 mps 765 mmHg 79%
07:00 +10°C° 0 mm 3 mps 766 mmHg 77%
08:00 +11°C° 0 mm 3 mps 765 mmHg 73%
09:00 +12°C° 0 mm 3 mps 765 mmHg 69%
10:00 +13°C° 0 mm 3 mps 765 mmHg 65%
11:00 +14°C° 0 mm 4 mps 765 mmHg 64%
12:00 +15°C° 0 mm 5 mps 765 mmHg 64%
13:00 +16°C° 0 mm 5 mps 765 mmHg 63%
14:00 +15°C° 0 mm 5 mps 765 mmHg 66%
15:00 +15°C° 0 mm 6 mps 765 mmHg 69%
16:00 +14°C° 0 mm 6 mps 765 mmHg 71%
17:00 +13°C° 0 mm 5 mps 765 mmHg 78%
18:00 +10°C° 0 mm 5 mps 765 mmHg 84%
19:00 +8°C° 0 mm 4 mps 765 mmHg 91%
20:00 +8°C° 0 mm 4 mps 765 mmHg 90%
21:00 +8°C° 0 mm 4 mps 764 mmHg 90%
22:00 +8°C° 0 mm 3 mps 764 mmHg 90%
23:00 +8°C° 0 mm 3 mps 764 mmHg 90%

26 September, Saturday

Time Temperature Precipitation Wind Pressure Humidity
00:00 +8°C° 0 mm 3 mps 763 mmHg 90%
01:00 +8°C° 0 mm 3 mps 762 mmHg 90%
02:00 +8°C° 0 mm 3 mps 762 mmHg 90%
03:00 +7°C° 0 mm 3 mps 761 mmHg 89%
04:00 +7°C° 0 mm 3 mps 761 mmHg 89%
05:00 +8°C° 0 mm 3 mps 761 mmHg 86%
06:00 +9°C° 0 mm 3 mps 761 mmHg 83%
07:00 +10°C° 0 mm 3 mps 761 mmHg 80%
08:00 +12°C° 0 mm 3 mps 761 mmHg 73%
09:00 +16°C° 0 mm 3 mps 761 mmHg 66%
10:00 +18°C° 0 mm 3 mps 761 mmHg 60%
11:00 +18°C° 0 mm 4 mps 761 mmHg 60%
12:00 +18°C° 0 mm 4 mps 761 mmHg 61%
13:00 +18°C° 0 mm 4 mps 761 mmHg 61%
14:00 +18°C° 0 mm 4 mps 761 mmHg 65%
15:00 +17°C° 0 mm 4 mps 761 mmHg 68%
16:00 +15°C° 0 mm 4 mps 761 mmHg 72%
17:00 +13°C° 0 mm 4 mps 762 mmHg 78%
18:00 +11°C° 0 mm 3 mps 762 mmHg 85%
19:00 +9°C° 0 mm 2 mps 763 mmHg 92%
20:00 +9°C° 0 mm 2 mps 763 mmHg 92%
21:00 +9°C° 0 mm 2 mps 763 mmHg 92%
22:00 +9°C° 0 mm 1 mps 763 mmHg 92%
23:00 +9°C° 0 mm 1 mps 763 mmHg 92%
Show more